Charter Quote
Worldwide +1-877-727-2538 Call
Select Language Lang
SAFETY RELIABILITY EXPERIENCE

Private Jet Charter Services - Shuangliu (ZUUU)

Paramount Business Jets offers private jet charter flights and luxury airliner charters to and from Shuangliu.

AIRPORT INFORMATION
ICAOZUUU
LOCATIONChengdu, China
FACILITY TYPEAIRPORT

At Paramount Business Jets you can hire chartered private jets to and from Shuangliu with as little as 4 hours of notice. All flights booked via Paramount Business Jets are operated by certified direct air carriers that meet and exceed the FAA part 135 and 121 protocol or a foreign equivalent safety authority. Furthermore, Paramount Business Jets subscribes to ARGUS for their third party safety checks of operators, aircraft, and crews prior each and every flight to and from Shuangliu and worldwide.

  • Quote a trip using Shuangliu or call us 24/7 - 365 days a year at +1-877-727-2538.
Questions? Call +1-877-727-2538

METAR Weather Data at Shuangliu, ZUUU

STATIONZUUU
OBSERVEDMon Oct 21, 20:00 UTC
NOWMon Oct 21, 20:09 UTC
AGE9 min ago
WINDvaries at 2 mph
VISIBILITY6 miles
CONDITIONSmist
CLOUDSscattered clouds
TEMP61°F (16°C)
DEWPT59°F (15°C)
HUMIDITY94%
BAROMETER1012 hPa (29.88 in Hg)
METARZUUU 212000Z VRB01MPS 4000 BR FEW007 SCT026 16/15 Q1012 NOSIG

Call us on +1-877-727-2538 (24 Hours) to Hire a Private Jet or Get a Quick Quote.

Find Airports Near any Location

Processing
...